Location: *
(43.0833°N, 13.0500°E)
Time: 12:47:16
(UTC+00:00)

ATLAS 5 CENTAUR R/B - Pass Details

Date: 15 November 2019
Orbit: 563 x 1096 km, 63.3° (Epoch: 09 December)

Event Time Altitude Azimuth Distance (km) Brightness Sun altitude
Rises 17:33:54 0° 319° (NW) 3,379 5.8 -20.0°
Reaches altitude 10° 17:36:16 10° 315° (NW) 2,520 5.2 -20.4°
Maximum altitude 17:42:01 53° 240° (WSW) 1,167 3.2 -21.5°
Drops below altitude 10° 17:48:29 10° 166° (SSE) 2,830 4.8 -22.6°
Sets 17:51:18 0° 162° (SSE) 3,828 5.5 -23.2°
